Regional Weather Roundup
Issued by NWS Goodland, KS

Home | Current Version | Previous Version | Graphics & Text | Print | Product List | Glossary On
Versions: 1 2 3 4 5 6 7 8 9 10 11 12 13 14 15 16 17 18 19 20 21 22 23 24 25 26 27 28 29 30 31 32 33 34 35 36 37 38 39 40 41 42 43 44 45 46 47 48 49 50
000
ASUS43 KGLD 181859
RWRGLD

GOODLAND FORECAST AREA HOURLY WEATHER ROUNDUP
NATIONAL WEATHER SERVICE GOODLAND KS
100 PM MDT FRI APR 18 2014

...OFFICIAL OBSERVATIONS...

CITY           SKY/WX    TMP DP  RH WIND       PRES   REMARKS
GOODLAND KS    SUNNY     69  39  33 S23G30    30.00F
HILL CITY KS   SUNNY     69  43  38 S18G30    30.08F
IMPERIAL NEB   MOSUNNY   72  38  29 S20G26    29.96F
MCCOOK NEB     SUNNY     69  41  36 S24G31    30.01F
AKRON CO       SUNNY     74  27  17 S14G26    29.95F
BURLINGTON CO  SUNNY     73  37  27 S16       29.99F
LIMON CO       SUNNY     72  25  17 SE12G18   30.00F
$$

...UNOFFICIAL OBSERVATIONS...

CITY           SKY/WX    TMP DP  RH WIND       PRES   REMARKS
COLBY KS       SUNNY     68  45  42 SE25G35   30.04F
LENORA KS        N/A     65  32  29 S23         N/A
LEOTI KS         N/A     66  32  27 S16         N/A
NORTON KS      SUNNY     66  43  42 SE22G31   30.05F
SHARON SPRINGS   N/A     70  42  35 S20G31      N/A
WAKEENEY KS      N/A     68  39  35 MISG        N/A
KIT CARSON CO    N/A     70  39  31 MISG        N/A
$$



USA.gov is the U.S. government's official web portal to all federal, state and local government web resources and services.